Preview of NWS' New Version of Forecast
This preview is not operational and should not be used for support decisions.

Regional Weather Roundup (RWR)

Issued by National Weather Service (NWS)

                            
000
ASUS42 KTBW 191918
RWRFL 
FLORIDA REGIONAL WEATHER ROUNDUP
NATIONAL WEATHER SERVICE TAMPA BAY RUSKIN FL
300 PM EDT MON AUG 19 2019

NOTE: "FAIR" INDICATES FEW OR NO CLOUDS BELOW 12,000 FEET WITH NO
SIGNIFICANT WEATHER AND/OR OBSTRUCTIONS TO VISIBILITY.

FLZ001>010-012>015-112-114-115-192000-
PANHANDLE FLORIDA
  
CITY           SKY/WX    TMP DP  RH WIND       PRES   REMARKS
PENSACOLA      FAIR      88  77  69 SW14      30.03F HX 100           
PENSACOLA NAS  PTSUNNY   83  75  77 SW9       30.04F                  
MILTON NAS     PTSUNNY   85  76  74 S18       30.03                   
CRESTVIEW      TSTM      84  75  74 S12       30.04F                  
DUKE FIELD     DRIZZLE   84  75  74 S15       30.03F                  
VALPARAISO     PTSUNNY   86  75  69 S14       30.04F                  
TRI COUNTY     FAIR      79  72  79 VRB5      30.04S THUNDER          
PANAMA CITY    PTSUNNY   84  74  71 S18       30.04F                  
TYNDALL AFB    MOSUNNY   82  76  81 SW16G23   30.04F                  
APALACHICOLA   PTSUNNY   78  73  84 SW8       30.08F                  

STATION/POSITION SKY/WX   TEMP    WIND        PRES    WAVE   SWELL
                          AIR SEA DIR/SP/G            HT/PER HT/PER
                          (F)     (DEG/KT/KT) (MB)    (FT/S) (FT/S)
30.1N   87.6W              79 86  210/ 16/ 17 1017.1F   3/ 6   2/13
29.2N   88.2W              78 85  230/ 12/ 16 1019.0S   3/ 7   2/ 7
28.8N   86.0W                 84  360/ 14/ 16 1018.9F   3/ 7
PANAMA CITY BEAC           80 86  180/ 18/ 21 1018.3F
TOWER C                    79     260/ 14/ 15 1018.7F
28.5N   84.5W              83     110/  4/  6 1019.4F   3/ 6   2/ 6

$$
FLZ011-016>038-118-127-128-134-139-239-192000-
NORTH FLORIDA
  
CITY           SKY/WX    TMP DP  RH WIND       PRES   REMARKS
MARIANNA       FAIR      86  74  67 SW8       30.02F                  
TALLAHASSEE    PTSUNNY   84  74  71 S12       30.04F                  
PERRY          FAIR      78  77  97 SW8G16    30.08F                  
LIVE OAK       MOSUNNY   77  77 100 VRB6      30.08F                  
CROSS CITY     FAIR      76  73  89 CALM      30.10F                  
LAKE CITY      FAIR      81  72  74 SW9       30.10F                  
GAINESVILLE    TSTM      74  71  91 W3        30.12F FOG              
WILLISTON      FAIR      83  76  79 N6        30.09F                  
MAYPORT NAS    PTSUNNY   83  73  72 SW3       30.10R                  
JACKSONVILLE   PTSUNNY   85  72  65 W8        30.08F                  
JAX NAS        PTSUNNY   88  70  55 NW9       30.09F                  
JAX CECIL      NOT AVBL                                               
FERNANDINA BEA FAIR      77  74  93 E8        30.10F                  
ST AUGUSTINE   FAIR      88  74  63 SE10      30.09F HX  96           
PALM COAST     MOSUNNY   90  73  58 SE9       30.08F HX  98           

STATION/POSITION SKY/WX   TEMP    WIND        PRES    WAVE   SWELL
                          AIR SEA DIR/SP/G            HT/PER HT/PER
                          (F)     (DEG/KT/KT) (MB)    (FT/S) (FT/S)
SHELL POINT      NOT AVBL
KEATON BEACH               77     220/  9/ 10 1018.5F
CEDAR KEY                  81      50/  3/  3 1019.9F
FERNANDINA                 78 82              1020.5R
30.7N   81.3W                 82                N/A     2/ 8
MAYPORT                    82 82  240/  5/  8 1019.8R
31.4N   80.9W              81 83  190/ 12/ 14 1018.7F   2/ 8   2/ 8
ST AUGUSTINE               82 83  130/  9/ 10 1019.1F

$$
FLZ040-043>046-052-053-057-058-063-144-192000-
INTERIOR CENTRAL FLORIDA
  
CITY           SKY/WX    TMP DP  RH WIND       PRES   REMARKS
OCALA          FAIR      88  71  57 W5        30.09F                  
LEESBURG       FAIR      92  71  50 NW7       30.08F HX  98           
SANFORD        FAIR      90  72  55 MISG      30.07F HX  97           
ORLANDO EXEC   PTSUNNY   91  72  53 E8        30.07F HX  98           
ORLANDO INTL   PTSUNNY   91  73  55 SE8       30.06F HX  99           
KISSIMMEE      FAIR      91  73  55 VRB7      30.07F HX  99           
WINTER HAVEN   FAIR      93  69  45 E6        30.08F HX  98           
LAKELAND       MOSUNNY   91  70  49 E6        30.08F HX  97           
BARTOW         MOSUNNY   91  72  52 E7        30.06F HX  98           
SEBRING        FAIR      86  71  60 SE16      30.08S                  
OKEECHOBEE     FAIR      91  72  52 E7        30.05F HX  98           

$$
FLZ041-047-054-059-064-141-147-192000-
EAST CENTRAL FLORIDA
  
CITY           SKY/WX    TMP DP  RH WIND       PRES   REMARKS
ORMOND BEACH   MOSUNNY   86  73  66 S6        30.09F THUNDER          
DAYTONA BEACH  PTSUNNY   86  75  69 CALM      30.09F THUNDER HX  95   
DELAND         CLOUDY    84  73  70 E18       30.08S THUNDER          
NEW SMYRNA BEA MOSUNNY   86  75  70 SE7       30.10F HX  95           
TITUSVILLE     MOSUNNY   91  77  62 SE8       30.09  HX 105           
CAPE CANAVERAL FAIR      88  79  74 CALM      30.07F HX 103           
PATRICK AFB    FAIR      86  83  89 E9        30.08F HX 105           
MELBOURNE      FAIR      89  78  70 E9        30.08F HX 103           
VERO BEACH     FAIR      89  75  63 E13       30.08F HX  99           
FT PIERCE      FAIR      90  75  61 E12       30.07F HX 100           
STUART         MOSUNNY   90  73  58 E9        30.08F HX  98           

STATION/POSITION SKY/WX   TEMP    WIND        PRES    WAVE   SWELL
                          AIR SEA DIR/SP/G            HT/PER HT/PER
                          (F)     (DEG/KT/KT) (MB)    (FT/S) (FT/S)
28.5N   80.2W              85 85  100/  8/ 12 1018.7F   2/ 9   2/ 9
28.9N   78.5W              85 87  100/  6/  8 1019.4F
TRIDENT PIER               86 80   70/  7/  9 1020.5F
28.4N   80.5W                 80                N/A     1/ 9
27.5N   80.2W                 85                N/A     2/ 4

$$
FLZ050-056-061-142-242-148-248-149-249-151-251-155-255-
160-260-192000-
WEST CENTRAL FLORIDA
  
CITY           SKY/WX    TMP DP  RH WIND       PRES   REMARKS
CRYSTAL RIVER  FAIR      88  72  58 W5        30.09F                  
INVERNESS      FAIR      90  75  62 CALM      30.08F HX 100           
BROOKSVILLE    FAIR      90  73  57 N6        30.09F HX  98           
CLEARWATER AIR PTSUNNY   88  73  62 NW8       30.07F HX  96           
ST PETE CLEARW FAIR      92  72  51 N3        30.07F HX  99           
TAMPA INTL     CLOUDY    90  75  61 SW9       30.06F HX 100           
PLANT CITY     PTSUNNY   86  77  74 NW8       30.10S HX  97           
MACDILL AFB    FAIR      90  75  61 W3        30.06F HX 100           
PETER O KNIGHT FAIR      91  75  59 E3        30.07F HX 102           
ST PETERSBURG  FAIR      90  75  61 E5        30.05F HX 100           
SARASOTA       PTSUNNY   88  77  69 W12       30.04F HX 100           
VENICE         FAIR      90  77  66 W10       30.06S HX 102           

STATION/POSITION SKY/WX   TEMP    WIND        PRES    WAVE   SWELL
                          AIR SEA DIR/SP/G            HT/PER HT/PER
                          (F)     (DEG/KT/KT) (MB)    (FT/S) (FT/S)
27.3N   84.2W                 85                N/A     2/ 8
CLEARWATER BEACH           85 85  300/  7/  9 1018.9F
MIDDLE TAMPA BAY           85     350/  5/  6 1018.8F
VENICE                     87 85  290/  9/ 10 1017.6F

$$
FLZ066-069-070-075>078-162-262-165-265-192000-
SOUTHWEST FLORIDA AND KEYS
  
CITY           SKY/WX    TMP DP  RH WIND       PRES   REMARKS
PUNTA GORDA    FAIR      91  73  55 NE7       30.07F HX  99           
FT MYERS       FAIR      93  71  48 E8        30.03F HX 100           
SOUTHWEST INTL PTSUNNY   92  71  50 E12       30.04F HX  98           
IMMOKALEE      FAIR      93  73  52 E7G15     30.02F HX 102           
MARATHON       FAIR      92  77  61 SE9       30.02F HX 105           
KEY WEST NAS   FAIR      95  75  52 E15       30.02F HX 107           
KEY WEST INTL  FAIR      90  76  63 E13       30.03S HX 101           

STATION/POSITION SKY/WX   TEMP    WIND        PRES    WAVE   SWELL
                          AIR SEA DIR/SP/G            HT/PER HT/PER
                          (F)     (DEG/KT/KT) (MB)    (FT/S) (FT/S)
NAPLES                     92 87              1016.9F
26.0N   85.6W              86 86   80/ 12/ 14 1017.9F   3/ 7   2/ 7
DRY TORTUGAS               85     120/ 21/ 25 1017.0F
SAND KEY                   86     110/ 15/ 17 1015.6
SOMBRERO KEY               85     100/ 11/ 14 1016.8
LONG KEY                   84                 1015.8

$$
FLZ067-068-071>074-168-172>174-192000-
SOUTHEAST FLORIDA 
  
CITY           SKY/WX    TMP DP  RH WIND       PRES   REMARKS
W PALM BEACH   PTSUNNY   87  74  64 E15       30.07F HX  95           
FT LAUDER-EXEC FAIR      87  73  62 NE10G18   30.04F                  
FT LAUDERDALE  PTSUNNY   89  75  63 E9        30.03F HX  99           
POMPANO BEACH  FAIR      88  74  63 NE9       30.04F HX  96           
PEMBROKE PINES FAIR      89  75  63 SE6       30.05F HX  99           
OPA LOCKA      FAIR      88  76  67 NE3       30.04F HX  99           
MIAMI          PTSUNNY   85  74  69 NE6       30.04F                  
WEST KENDALL   FAIR      87  76  69 NE8       30.03F THUNDER HX  97   
HOMESTEAD      FAIR      89  75  63 NE12      30.02F HX 100           

STATION/POSITION SKY/WX   TEMP    WIND        PRES    WAVE   SWELL
                          AIR SEA DIR/SP/G            HT/PER HT/PER
                          (F)     (DEG/KT/KT) (MB)    (FT/S) (FT/S)
VIRGINIA KEY               85 90   50/  9/ 11 1017.3F
LAKE WORTH                         80/ 12/ 14   N/A
FOWEY ROCKS                84 87   50/  7/  8 1017.4F
SETTLEMENT POINT           82     320/  6/  8 1018.2F

$$